Probability
0 0 0 0 0 0 0 0 0 0 0 0 0 0 0 0 1 1 2 4 4 4 3 2 1 0 0 0 0 0 0 0 0 0 0 1 0 0 0 0 0 0 0 0 0 0 0 0 0
0 0 0 0 0 0 0 0 0 0 0 0 0 0 1 1 2 3 4 4 3 3 3 2 0 0 0 0 0 0 0 0 0 0 1 1 1 0 0 0 0 0 0 0 0 0 0 0 0
0 0 0 0 0 0 0 0 0 0 0 0 0 1 2 3 4 4 5 4 3 2 3 2 1 0 0 0 0 1 0 0 0 0 1 2 2 1 0 1 1 0 0 0 0 1 1 1 0
0 0 0 0 0 0 0 0 0 0 0 0 1 3 4 4 5 5 5 4 4 3 3 2 1 0 0 0 0 0 0 0 0 0 0 1 2 1 1 2 2 1 0 0 1 2 2 1 1
0 0 0 0 0 0 0 0 1 1 1 0 2 5 6 5 4 5 5 4 4 4 3 1 0 0 0 0 0 0 0 0 0 0 0 0 1 1 1 2 2 1 0 1 2 3 3 1 0
0 0 0 0 0 0 0 0 1 2 1 1 3 7 7 6 4 4 5 4 4 4 2 1 0 0 0 0 0 0 0 0 0 0 0 0 0 0 0 1 1 0 0 1 2 2 2 1 0
0 0 0 0 0 0 0 0 1 1 1 2 4 7 8 6 5 6 7 7 6 4 1 0 0 0 0 0 0 0 0 0 0 0 0 0 0 0 0 0 0 0 0 1 1 1 1 0 0
0 0 0 0 0 0 0 1 1 0 1 1 3 7 7 6 5 7 9 9 8 5 1 0 0 0 0 0 0 0 0 0 0 0 0 0 0 0 0 0 0 0 0 0 0 0 0 0 0
0 0 0 0 0 0 0 1 1 0 0 1 2 5 5 4 4 6 8 8 7 5 2 0 0 0 0 0 0 0 0 0 0 0 0 0 0 0 0 0 0 0 0 0 0 0 0 0 0
0 0 0 0 0 0 0 1 1 0 0 1 1 2 2 1 2 4 6 6 6 5 2 0 0 0 0 0 0 0 0 0 0 0 0 0 0 0 0 0 0 0 0 0 0 0 0 0 0
0 0 0 0 0 0 0 0 0 0 0 0 1 1 1 1 1 2 4 5 5 5 3 1 0 0 0 0 0 0 0 0 0 0 0 0 0 0 0 0 0 0 0 0 0 0 0 0 0
0 0 0 0 0 0 0 0 0 0 0 0 0 2 2 1 0 1 2 3 4 4 3 1 0 0 0 0 0 1 1 0 0 0 0 0 0 0 0 0 0 0 0 0 0 0 0 0 0
0 0 0 0 0 0 0 0 0 0 0 0 0 1 2 1 0 0 1 2 3 3 3 1 1 0 0 0 0 1 1 0 0 0 0 0 0 0 0 0 0 0 0 0 0 0 0 0 0
0 0 0 0 0 0 0 0 0 0 0 0 0 0 0 0 0 0 0 1 1 2 3 3 2 1 0 0 0 0 0 0 0 0 0 0 0 0 0 0 0 0 0 0 0 0 0 0 0
0 0 0 0 0 0 0 0 0 0 0 0 0 0 0 0 0 0 0 0 0 1 2 3 3 2 1 1 1 0 0 0 0 0 0 0 0 0 0 0 0 0 0 0 0 0 0 0 0
0 0 0 0 0 0 0 0 0 0 0 0 0 0 0 0 0 1 1 0 0 0 1 2 3 2 2 2 2 1 0 0 0 0 0 0 0 0 0 0 0 0 0 0 0 0 0 0 0
0 0 0 0 0 0 0 0 0 0 0 0 0 0 0 0 0 1 2 1 0 0 0 1 2 3 3 3 3 2 0 0 0 0 0 0 0 0 0 0 0 0 0 0 0 0 0 0 0
0 0 0 0 0 0 0 0 0 0 0 0 0 0 0 0 0 1 2 2 1 0 0 1 1 2 3 3 3 1 0 0 1 1 0 0 0 0 0 0 0 0 0 0 0 0 0 0 0
0 0 0 0 0 0 0 0 0 0 0 0 0 0 0 0 0 0 1 1 1 1 1 2 2 2 3 3 3 1 0 0 1 1 0 0 0 0 0 0 0 0 0 0 0 0 0 0 0
0 0 0 0 0 0 0 0 0 0 0 0 0 0 0 0 0 0 0 1 0 1 2 3 3 3 4 4 4 2 1 0 0 0 0 0 0 0 0 0 0 0 0 0 0 0 0 0 0
0 0 0 0 0 0 0 0 0 0 0 0 0 0 0 0 0 0 0 1 0 0 1 2 3 3 4 5 5 4 2 1 1 1 0 0 0 0 0 0 0 0 0 0 0 0 0 0 0
0 0 0 0 0 0 0 0 0 0 0 0 0 0 0 0 0 0 0 0 0 0 0 1 2 3 4 5 6 5 4 3 3 2 1 0 0 0 0 0 0 0 0 0 0 0 0 0 0
0 0 0 0 0 0 0 0 0 0 0 0 0 0 0 0 0 0 0 0 0 0 0 0 1 3 4 4 4 5 6 5 4 3 1 0 0 0 0 0 0 0 0 0 0 0 0 0 0
0 0 0 0 0 0 0 0 0 0 0 0 0 0 0 0 0 0 0 0 0 0 0 0 1 2 3 3 3 4 5 5 5 3 1 1 1 0 0 0 0 0 0 0 0 0 0 0 0
0 0 0 0 0 0 0 0 0 0 0 0 0 0 0 0 0 0 0 0 0 0 0 0 0 1 2 2 2 3 4 4 4 3 3 2 2 1 1 0 0 0 0 0 0 0 0 0 0
0 0 0 0 0 0 0 0 0 0 0 0 0 0 0 0 0 0 0 0 0 0 0 0 0 0 0 0 1 1 2 3 3 3 3 3 3 3 2 1 0 0 0 0 0 0 0 0 0
0 0 0 0 0 0 0 0 0 0 0 0 0 0 0 0 0 0 0 0 0 0 0 0 0 0 0 0 0 0 1 1 2 2 2 3 3 3 3 1 0 0 0 0 0 0 0 0 0
0 0 0 0 0 0 0 0 0 0 0 0 0 0 0 0 0 0 0 0 0 0 0 0 0 0 0 0 0 0 0 0 1 1 1 1 2 2 2 1 0 0 0 0 0 0 0 0 0
0 0 0 0 0 0 0 0 0 0 0 0 0 0 0 0 0 0 0 0 0 0 0 0 0 0 0 0 0 0 0 0 0 0 0 0 1 1 1 1 0 0 0 0 0 0 0 0 0
0 0 0 0 0 0 0 0 0 0 0 0 0 0 0 0 0 0 0 0 0 0 0 0 0 0 0 0 0 0 0 0 0 0 0 0 0 0 0 0 0 0 0 0 0 0 0 0 0
Wind_Speed
13 10 6 3 3 4 6 3 2 1 2 5 6 5 6 7 6 6 4 5 6 6 5 4 6 7 8 8 8 9 9 9 9 9 10 10 10 11 11 11 11 11 11 12 12 12 12 12 12
10 7 4 3 4 6 4 3 3 2 5 4 4 3 5 8 8 7 4 5 6 6 5 5 6 7 8 8 9 9 9 8 8 9 9 9 10 10 10 11 11 11 11 12 12 12 12 11 11
9 6 3 3 4 5 2 2 4 6 6 3 3 4 5 6 6 5 4 5 6 6 6 6 7 8 8 8 9 9 8 8 9 9 9 9 9 9 10 10 10 11 11 11 11 11 11 11 10
4 3 4 4 6 4 1 2 5 6 4 2 4 5 6 6 4 5 5 6 6 6 6 6 7 8 8 8 9 9 9 8 8 8 8 9 9 9 9 9 10 10 11 10 10 10 10 10 10
3 3 4 5 7 3 0 2 3 4 4 4 3 5 6 5 7 6 5 6 6 6 6 6 7 8 8 9 9 8 8 9 9 9 9 9 9 9 9 9 10 10 10 10 9 9 9 9 9
3 3 5 6 6 4 2 1 2 2 3 4 3 4 6 5 5 4 4 5 6 7 6 6 8 8 8 8 8 8 8 9 9 9 9 9 9 9 9 9 9 9 9 9 9 8 8 8 8
3 3 5 6 5 3 2 2 2 1 2 3 2 3 6 4 4 4 4 5 6 6 5 4 4 6 7 8 8 8 8 8 8 8 8 9 9 9 9 9 9 8 9 9 8 8 8 8 7
3 3 5 6 5 3 2 2 3 3 3 4 4 2 4 4 4 4 4 5 5 5 5 4 4 4 4 5 7 8 8 7 7 7 8 8 8 8 8 8 8 8 8 8 8 8 8 7 7
3 3 4 4 3 2 3 3 3 4 4 4 5 6 5 7 6 5 4 4 4 4 3 3 3 3 3 3 5 5 6 6 6 5 6 5 3 3 4 6 8 8 7 7 7 7 7 6 6
2 3 3 3 4 2 3 3 3 2 3 2 4 6 6 6 5 4 4 3 3 2 2 2 3 3 3 2 3 2 3 4 3 3 3 2 2 3 4 5 6 6 6 6 7 7 6 5 2
1 1 1 3 6 3 3 3 3 2 1 1 2 5 6 5 3 3 3 3 3 3 2 2 2 2 2 2 2 2 2 2 3 3 2 2 2 2 3 2 2 3 4 3 4 3 2 3 2
1 2 3 3 4 3 2 2 2 1 1 4 4 5 6 5 3 2 2 2 3 3 2 2 2 2 2 1 1 2 2 2 2 2 2 2 1 2 2 2 2 2 1 2 2 1 2 3 3
1 1 3 4 4 3 3 1 1 0 1 2 3 5 5 3 2 2 2 2 2 2 1 1 1 2 1 1 1 2 2 2 2 1 2 3 2 1 1 1 1 1 1 2 2 2 2 2 3
3 4 2 2 2 1 1 1 1 2 1 2 2 2 3 3 3 2 2 2 1 1 1 0 1 1 1 1 1 1 2 2 2 2 2 2 2 1 1 1 1 1 1 2 2 2 2 2 2
3 3 2 1 2 1 1 2 3 2 2 3 2 2 2 2 2 2 2 2 2 1 1 1 1 1 2 1 1 1 1 2 1 1 1 1 1 2 2 1 1 1 1 1 1 2 2 2 2
3 2 1 2 3 2 2 3 1 3 4 4 3 3 2 2 1 1 2 2 2 2 1 1 1 2 2 1 1 1 1 2 1 1 1 1 1 2 1 1 1 1 1 1 1 1 2 2 2
4 2 2 3 2 2 3 3 1 2 3 4 3 3 3 2 2 1 1 2 2 2 2 1 1 1 1 2 2 2 2 2 1 1 1 1 1 1 1 1 1 1 1 1 2 2 1 2 2
1 1 0 2 3 2 2 4 3 3 4 4 3 3 3 3 3 2 2 2 2 2 2 1 1 1 1 1 1 1 1 1 1 1 1 1 1 1 1 1 1 1 1 1 1 2 2 1 1
2 1 1 2 2 1 2 5 6 4 4 5 4 4 4 3 2 2 2 3 2 2 1 1 1 1 1 1 2 2 2 1 1 1 1 1 1 1 1 1 0 0 0 0 1 1 1 1 1
1 0 1 1 2 0 2 6 7 5 6 5 5 4 3 2 2 2 3 3 2 1 1 1 1 1 1 1 2 2 2 2 2 1 1 1 1 1 1 1 0 0 0 0 0 1 1 1 1
1 1 0 1 2 3 3 5 4 3 3 3 2 2 2 3 3 3 3 3 2 2 1 1 1 1 1 2 2 1 1 1 1 1 1 1 1 1 1 1 1 0 0 0 1 0 0 1 1
0 2 1 0 1 2 2 3 3 3 2 3 3 2 3 2 3 3 3 3 2 2 2 1 1 1 0 2 3 3 3 2 2 2 2 2 2 2 1 1 1 1 1 0 1 0 1 1 1
1 1 0 1 1 2 2 2 5 2 2 3 3 3 3 3 3 3 3 3 2 2 2 1 1 0 0 1 3 3 3 2 1 1 2 2 2 2 2 1 1 1 1 1 1 1 1 1 1
2 1 2 2 1 3 3 3 4 2 3 2 3 4 3 3 2 2 2 2 2 2 2 1 1 0 0 1 2 3 3 2 2 2 2 2 1 1 2 2 2 2 1 1 1 1 1 2 2
2 1 0 1 1 4 2 2 6 2 2 2 3 4 4 4 3 2 2 2 2 2 2 1 1 1 1 1 1 2 3 3 3 3 2 2 2 1 2 2 2 2 1 1 1 1 2 2 2
2 1 2 2 2 2 1 4 5 1 2 2 2 3 4 4 3 2 2 2 2 3 2 2 2 1 1 2 2 1 2 2 2 3 2 2 2 2 2 3 2 2 2 2 2 2 2 2 3
0 1 1 1 1 2 4 3 2 1 2 2 2 3 3 3 3 3 2 2 2 2 2 2 2 2 1 1 1 1 1 2 3 3 2 2 1 1 2 2 3 2 2 2 2 2 3 2 3
2 1 1 2 1 3 3 3 4 4 4 4 4 3 3 3 3 3 3 2 2 2 2 2 2 2 1 1 2 1 1 1 2 2 2 1 1 1 2 2 2 2 2 2 2 2 2 2 3
1 1 1 1 1 2 3 5 2 5 5 4 4 4 4 4 4 3 3 2 2 2 2 2 1 1 1 1 1 1 1 1 1 1 2 2 1 1 2 2 2 2 2 2 2 2 2 3 3
1 2 3 3 3 2 2 6 1 3 3 3 3 3 3 3 3 3 3 2 2 2 2 2 2 2 2 1 1 1 0 0 1 1 1 1 1 1 1 1 1 2 2 2 2 3 3 3 3
Wind_Direction
307 291 271 256 241 233 234 220 181 106 67 44 32 27 48 42 38 97 109 80 88 98 97 87 68 76 78 72 72 76 75 74 73 73 72 70 70 69 67 64 61 59 59 60 62 61 59 57 55
297 290 272 242 241 233 224 186 168 107 83 76 52 34 70 77 72 95 98 81 94 98 95 82 70 79 82 78 74 71 73 74 73 74 75 72 69 69 68 64 61 60 61 60 61 60 59 56 53
283 265 253 236 242 248 222 131 115 97 91 97 87 39 47 72 84 88 91 101 98 94 91 84 71 78 83 82 79 74 72 74 74 74 75 74 73 71 70 66 62 62 61 58 58 58 56 54 50
278 242 240 244 243 253 253 115 113 118 110 96 101 92 72 50 56 87 107 104 100 95 90 85 78 81 78 78 81 79 74 72 74 75 75 74 72 70 69 67 64 61 60 58 57 57 55 53 48
246 245 229 235 245 238 236 116 149 138 137 130 114 103 97 80 79 96 103 103 100 95 90 90 78 80 79 75 73 77 77 71 71 74 74 73 71 69 66 67 64 62 61 59 57 57 54 52 46
250 243 231 230 231 210 191 144 161 119 115 116 119 107 100 100 94 95 102 105 102 100 98 100 80 77 75 73 71 66 73 73 70 71 72 71 68 67 64 63 62 61 60 59 58 56 53 50 44
271 264 253 247 234 210 198 165 147 151 118 88 58 109 115 105 84 99 105 106 103 106 107 106 103 89 78 72 67 64 61 68 69 68 67 65 62 62 60 55 55 58 58 56 54 52 50 49 42
300 275 248 247 242 211 168 121 66 74 73 50 28 69 115 120 100 103 102 102 105 105 105 105 98 93 91 86 73 66 58 60 67 64 63 64 63 59 58 51 48 54 56 54 50 47 45 43 38
287 255 247 257 259 137 124 106 74 46 72 64 52 52 76 110 108 104 100 97 100 100 95 96 95 94 95 95 86 74 60 51 60 62 63 64 59 62 58 49 48 47 47 48 45 41 39 40 34
272 245 263 325 359 75 118 100 104 93 98 87 87 85 99 108 113 120 119 116 104 93 86 89 91 84 86 85 89 75 64 53 49 57 60 57 50 54 61 52 46 43 40 38 35 32 30 26 20
344 308 340 10 23 53 90 94 103 125 157 153 146 140 128 121 121 125 128 123 117 110 85 74 84 87 83 83 90 79 71 59 47 53 46 53 54 55 62 59 42 37 38 29 24 28 16 16 13
95 16 16 31 17 40 69 65 74 65 52 30 40 116 127 136 147 148 122 96 95 96 87 83 85 89 86 84 95 102 90 76 62 44 36 58 61 52 54 54 41 36 19 10 13 17 9 11 12
150 120 65 73 55 39 46 28 41 62 57 56 60 92 126 142 140 132 102 96 97 90 84 104 110 107 108 101 93 102 97 88 81 61 37 42 59 60 62 59 48 38 19 8 3 12 10 12 10
91 116 111 101 94 64 52 334 309 260 163 140 125 136 147 151 153 135 118 109 101 111 137 148 125 122 114 117 126 115 110 109 102 87 56 52 53 48 56 62 42 33 24 7 355 3 14 18 15
132 128 141 182 188 174 62 298 239 229 177 183 179 170 158 161 157 142 140 140 143 146 155 145 153 138 129 130 144 132 127 118 108 111 101 77 65 59 50 59 44 17 12 5 357 16 25 24 15
200 190 193 162 171 163 157 256 175 156 178 193 197 185 175 182 161 139 147 145 151 144 135 145 175 158 152 151 143 131 129 127 119 115 115 111 76 61 61 56 40 20 14 7 4 12 19 12 0
197 209 193 141 151 158 191 249 144 149 182 207 199 186 183 180 175 175 162 143 146 148 142 163 190 151 156 160 148 143 133 127 116 104 94 129 105 70 68 62 29 25 20 17 10 10 12 5 354
163 196 211 142 133 148 203 251 242 209 204 218 209 198 199 197 192 183 165 142 126 129 143 159 180 157 156 165 154 154 144 132 121 121 115 137 134 122 96 72 20 31 39 23 20 16 9 2 336
3 30 349 57 86 87 238 271 272 236 217 225 221 209 210 211 190 162 143 122 115 111 112 167 186 177 162 171 172 174 171 170 148 137 141 144 130 145 137 100 59 59 80 19 15 20 3 356 343
284 225 312 48 84 52 301 283 270 249 226 225 219 208 208 210 171 147 142 131 135 146 159 177 226 202 175 180 178 168 156 164 157 147 144 147 132 147 150 135 159 155 104 41 13 28 1 326 3
315 213 293 349 335 241 268 294 239 228 207 199 211 214 209 199 186 172 167 166 157 172 190 210 214 224 197 171 155 140 116 114 151 150 166 181 154 149 151 164 165 182 150 204 240 205 177 287 325
279 62 64 285 296 269 198 289 269 197 198 197 204 206 214 201 187 175 172 174 182 197 188 195 182 189 167 167 168 168 170 184 195 178 181 180 166 150 138 154 173 180 171 211 257 251 239 210 275
96 60 337 276 275 300 226 231 276 181 229 219 193 186 189 181 179 180 178 178 181 169 164 181 185 204 146 147 170 180 193 194 172 155 167 169 165 159 157 178 192 205 207 209 218 224 230 206 219
146 190 216 242 264 277 223 196 268 214 223 199 168 163 166 157 160 167 159 151 162 151 147 155 168 208 128 140 170 185 192 189 175 190 190 184 176 176 178 188 207 212 213 220 224 218 231 225 223
203 156 56 356 292 252 176 194 250 226 141 146 159 163 157 158 162 167 163 162 169 167 166 177 180 201 184 169 193 210 205 199 202 203 203 198 189 194 202 202 213 216 220 228 229 228 238 236 227
231 246 156 199 242 275 181 231 248 148 104 104 126 143 146 147 155 165 171 165 169 175 179 184 188 206 202 200 217 231 223 211 217 213 203 199 205 209 196 202 211 215 218 229 223 232 241 249 239
239 228 360 105 87 301 254 242 277 142 153 165 163 154 158 160 159 159 158 154 158 170 181 192 201 210 213 220 225 224 226 225 224 220 207 199 202 203 193 199 210 218 223 228 228 233 240 243 245
320 335 114 149 179 260 265 239 233 213 218 203 194 189 183 168 162 160 163 166 163 163 167 170 184 198 204 203 216 226 230 237 246 226 217 207 215 207 194 205 210 220 228 230 230 239 245 242 252
175 201 209 190 208 204 259 260 221 183 184 190 199 187 179 177 175 173 172 172 162 149 155 169 191 194 193 194 204 219 237 247 253 247 242 227 225 218 209 212 215 226 237 238 234 239 246 249 263
256 232 185 178 234 230 245 269 292 136 143 162 179 171 163 164 165 162 165 161 154 158 169 185 188 197 209 193 183 207 236 279 260 273 282 274 244 235 235 230 226 236 246 244 239 248 249 243 255